Regional Weather Roundup
Issued by NWS State College, PA

Home | Current Version | Previous Version | Text Only | Print | Product List | Glossary Off
Versions: 1 2 3 4 5 6 7 8 9 10 11 12 13 14 15 16 17 18 19 20 21 22 23 24 25 26 27 28 29 30 31 32 33 34 35 36 37 38 39 40 41 42 43 44 45 46 47 48 49 50

000
ASUS41 KCTP 021210
RWRCTP

REGIONAL WEATHER ROUNDUP
NATIONAL WEATHER SERVICE STATE COLLEGE PA
800 AM EDT WED SEP 02 2015

Note: "fair" indicates few or no clouds below 12,000 feet with no
significant weather and/or obstructions to visibility.

* = STATION THAT DOES NOT REPORT PRECIPITATION /E.G. RAIN...SNOW...ETC/
    THUNDER OR FOG.

PAZ002>004-007>009-013>016-020>023-029>032-021300-
WESTERN PENNSYLVANIA

CITY           SKY/WX    TMP DP  RH WIND       PRES   REMARKS
ERIE           SUNNY     71  64  78 S6        30.08R
MEADVILLE      SUNNY     70  64  81 S3        30.12R
FRANKLIN*      SUNNY     64  63  94 CALM      30.15R
NEW CASTLE     FOG       67  67 100 CALM      30.12S VSB<1/4
BEAVER COUNTY  SUNNY     70  66  88 CALM      30.13
BUTLER*        PTSUNNY   64  64 100 CALM      30.14R
PITTSBURGH INT CLOUDY    71  66  84 CALM      30.12R
PITTSBURGH     PTSUNNY   72  64  76 CALM      30.12R
INDIANA*       NOT AVBL
LATROBE        PTSUNNY   68  68 100 CALM      30.14R
WASHINGTON CO* PTSUNNY   68  66  94 CALM      30.14R
$$

PAZ004>006-010>012-017>019-024>028-033>037-041-042-045-046-049>053-021300-
CENTRAL PENNSYLVANIA

CITY           SKY/WX    TMP DP  RH WIND       PRES   REMARKS
BRADFORD       MOSUNNY   57  55  93 CALM      30.15S FOG
DUBOIS         SUNNY     68  63  84 CALM      30.14R HAZE
CLEARFIELD     FOG       62  61  96 CALM      30.14R VSB<1/4
JOHNSTOWN      MOSUNNY   68  63  84 SW7       30.17R HAZE
ALTOONA        PTSUNNY   66  64  93 CALM      30.14R FOG
STATE COLLEGE  SUNNY     64  63  94 CALM      30.12R FOG
WILLIAMSPORT   CLOUDY    67  65  93 W7        30.07R FOG
SELINSGROVE    CLOUDY    64  62  93 CALM      30.08R FOG
FT INDIANTOWN  PTSUNNY   66  64  94 CALM      30.06R FOG
CAPITAL CITY   MOSUNNY   69  64  84 W3        30.06R
HARRISBURG     PTSUNNY   72  66  81 NW3       30.06R HAZE
YORK           PTSUNNY   66  64  93 CALM      30.07R FOG
$$

PAZ038>040-043-044-047-048-054-055-060>062-067>071-021300-
EASTERN PENNSYLVANIA

CITY           SKY/WX    TMP DP  RH WIND       PRES   REMARKS
SCRANTON       SUNNY     67  62  84 CALM      30.08R
MOUNT POCONO   SUNNY     65  62  90 CALM      30.11R FOG
ALLENTOWN      SUNNY     68  65  90 CALM      30.06R FOG
QUAKERTOWN*    SUNNY     66  64  94 CALM      30.07S
READING        MOSUNNY   69  65  86 CALM      30.05R FOG
LANCASTER      MOSUNNY   67  65  93 CALM      30.06S FOG
COATESVILLE    MOSUNNY   72  68  88 W3        30.08R FOG
POTTSTOWN      MOSUNNY   67  66  97 CALM      30.07S FOG
BLUE BELL      MOSUNNY   70  70 100 CALM      30.05S
DOYLESTOWN     MOSUNNY   67  67 100 CALM      30.05S
WILLOW GROVE   NOT AVBL
NORTH PHILA    FOG       72  69  90 CALM      30.06S VSB 1/4
PHILADELPHIA   PTSUNNY   75  71  87 E5        30.04S FOG
$$


USA.gov is the U.S. government's official web portal to all federal, state and local government web resources and services.